Flag Weather past 2 weeks in Bilbao, Spain

Now
64 °F

Scattered clouds.


Feels Like: 64 °F
Forecast: 52 / 57 °F
Wind: 12 mph from South

Location: Bilbao / Sondica

Current Time: Nov 28, 2014 at 4:18:15 PM

Latest Report: Nov 28, 2014 at 3:30 PM


Visibility: N/A

Pressure: 29.12 "Hg

Humidity: 60%

Dew point: 50 °F

Location of BilbaoLocation

Historic Weather in Bilbao — Graph

°F

Bilbao temperature yesterday

Maximum temperature yesterday: 64 °F (at 1:30 PM)
Minimum temperature yesterday: 48 °F (at 5:00 AM)
Average temperature yesterday: 59 °F

Past Weeks' High & Low Weather Summary

 TemperatureHumidityPressure
High75 °F (Nov 20, 3:00 PM)100% (Nov 14, 5:00 AM)30.12 "Hg (Nov 14, 5:00 AM)
Low45 °F (Nov 18, 6:00 AM)40% (Nov 14, 5:00 PM)29.06 "Hg (Nov 28, 8:30 AM)
Average60 °F71%29.82 "Hg
* Reported Nov 13 3:00 PM — Nov 28 3:00 PM, Bilbao, Weather by CustomWeather, © 2014

Note: Actual official high and low records may vary slightly from our data, if they occured in-between our weather recording intervals... More about our weather records

Advertising

Bilbao weather history for previous 24 hours

 ConditionsComfort  
Time TempWeatherWind HumidityBarometerVisibility
3:00 PM
Nov 28
64 °FScattered clouds.15 mph60%29.12 "HgN/A
2:30 PM66 °FPassing clouds.15 mph52%29.09 "HgN/A
2:00 PM64 °FPassing clouds.21 mph56%29.09 "HgN/A
1:30 PM64 °FPassing clouds.25 mph56%29.09 "HgN/A
1:00 PM64 °FPassing clouds.28 mph52%29.09 "HgN/A
12:30 PM64 °FPassing clouds.24 mph52%29.06 "HgN/A
12:00 PM64 °FPassing clouds.13 mph52%29.06 "HgN/A
11:30 AM64 °FPassing clouds.20 mph52%29.09 "HgN/A
11:00 AM63 °FPassing clouds.17 mph56%29.09 "HgN/A
10:30 AM63 °FPassing clouds.22 mph56%29.09 "HgN/A
10:00 AM63 °FPassing clouds.21 mph56%29.06 "HgN/A
9:30 AM63 °FPassing clouds.16 mph56%29.09 "HgN/A
9:00 AM63 °FPassing clouds.20 mph56%29.06 "HgN/A
8:30 AM63 °FPassing clouds.20 mph56%29.06 "HgN/A
8:00 AM63 °FPassing clouds.23 mph56%29.09 "HgN/A
7:30 AM63 °FPassing clouds.16 mph56%29.09 "HgN/A
7:00 AM63 °FPassing clouds.15 mph56%29.09 "HgN/A
6:30 AM63 °FPassing clouds.17 mph56%29.09 "HgN/A
6:00 AM63 °FPassing clouds.17 mph56%29.09 "HgN/A
5:30 AM63 °FPassing clouds.20 mph56%29.09 "HgN/A
11:30 PM
Nov 27
63 °FPassing clouds.14 mph56%29.21 "HgN/A
11:00 PM63 °FPassing clouds.14 mph56%29.21 "HgN/A
10:30 PM64 °FPassing clouds.14 mph52%29.24 "HgN/A
10:00 PM63 °FPassing clouds.18 mph59%29.21 "HgN/A
9:30 PM63 °FPassing clouds.16 mph59%29.24 "HgN/A
9:00 PM63 °FPassing clouds.18 mph59%29.24 "HgN/A
8:30 PM63 °FPassing clouds.18 mph59%29.27 "HgN/A
8:00 PM63 °FPassing clouds.17 mph59%29.27 "HgN/A
7:30 PM63 °FPassing clouds.13 mph59%29.30 "HgN/A
7:00 PM63 °FPassing clouds.17 mph59%29.33 "HgN/A
6:30 PM63 °FPassing clouds.20 mph59%29.33 "HgN/A
6:00 PM61 °FPassing clouds.13 mph59%29.33 "HgN/A
5:30 PM61 °FPassing clouds.18 mph63%29.33 "HgN/A
5:00 PM61 °FPassing clouds.18 mph63%29.36 "HgN/A
4:30 PM63 °FPassing clouds.21 mph59%29.36 "HgN/A
4:00 PM63 °FPassing clouds.22 mph59%29.36 "HgN/A
Weather by CustomWeather, © 2014

See weather overviewHow to use our weather pages